Location: Ch�ze
(42.9000°N, 0.0333°W)
Time: 23:46:35
(UTC+00:00)

Meteor 2-1 Rocket - Pass Details

Date: 24 January 2021
Orbit: 827 x 910 km, 81.3° (Epoch: 24 February)

Event Time Altitude Azimuth Distance (km) Brightness Sun altitude
Rises 18:14:03 0° 349° (NNW) 3,401 7.3 -13.1°
Reaches altitude 10° 18:16:29 10° 348° (NNW) 2,454 6.6 -13.5°
Maximum altitude 18:22:02 82° 262° (W) 842 4.3 -14.5°
Drops below altitude 10° 18:27:30 10° 175° (S) 2,422 6.7 -15.5°
Sets 18:29:53 0° 175° (S) 3,353 7.4 -15.9°
